Airfield :
LOGIN :

Register | Disclaimer

   EN    FR    IT 

 










Legend :    VFR   Marginal VFR   IFR   Intensive IFR   Very Intensive IFR
Visi :
Ceiling :
>= 8 km
>= 3000ft
5 to 8 km
1000 to 3000 ft
1500m to 5 km
500 to 1000 ft
800 to 1500m
200 to 500 ft
< 800m
< 200 ft
Symbols :   Thunderstorms  Fog  Heavy snow  Heavy precipitations  Wind > 20 kt
SIGMETs :     Misc.  Thunderstorms  Icing  Turbulence  Mountain Waves  Volcanic Ashes







- Airport Elevation : 82 ft
- IATA code : QIE
- Download approach charts


LFMI - Istres

CURRENT METAR :
  • 200900Z AUTO 34016KT CAVOK 09/02 Q1021 NOSIG

EXPIRED METARs :
  • 200830Z AUTO 36012KT CAVOK 09/01 Q1021 NOSIG
  • 200800Z AUTO 33008KT 310V010 CAVOK 09/02 Q1021 NOSIG
  • 200730Z AUTO 34010KT CAVOK 08/02 Q1021 NOSIG
  • 200700Z AUTO 32012KT CAVOK 08/01 Q1020 NOSIG
  • 200630Z AUTO 01004KT 310V060 CAVOK 08/01 Q1020 BECMG 35015KT

TAF TAF LFMI
Valid from the 20 at 09:00 until the 21 at 09:00 UTC


200800Z 2009/2109 33012KT CAVOK
No reported NOTAMs for that airfield.



MET'MAP, your aeronautical weather chart ! - Copyright ORBIFLY December 2007 - Disclaimer

ORBIFLY MET'MAP TEAM :

Programming & Development : Alexandra Zaïnal
Concept & Development : Baudouin d'Aumeries
Co-Development & Prog : Marc-Olivier Méhu
Technical & hardware support : Manuel Goepfert

Contact : metmap@orbifly.com




SOURCES & CREDITS :

   NOAA